[[{"header":{"parameterUnit":"m.s-1","parameterCategory":1,"la1":30.2991,"la2":30.254,"lo1":-89.0895,"lo2":-89.0444,"dy":0.0017,"dx":0.0017,"nx":28,"ny":28,"refTime":"2025-04-18T03:00:00:Z","depth":0,"parameterNumber":2,"parameterNumberName":"U-component_of_WINDS"},"data":[0,0,0,0,0,0,0,0,0,0,0,0,0,0,0,0,0,0,0,0,0,0,0,0,0,0,0,0,0,0,0,0,0,0,0,0,0,0,0,0,0,0,0,0,0,0,0,0,0,0,0,0,0,0,0,0,0,0,-2.5727,-2.5727,0,-2.5759,-2.576,-2.576,-2.5745,-2.5744,-2.5744,-2.5743,-2.5776,-2.5778,-2.5779,0,0,0,0,0,0,0,0,0,0,0,0,0,-2.5652,-2.5654,-2.5727,-2.5727,-2.5728,-2.5759,-2.576,-2.576,-2.5745,-2.5744,-2.5743,-2.5742,-2.5776,-2.5777,-2.5779,0,0,0,0,0,0,0,0,0,0,0,0,0,-2.5685,-2.5654,-2.5727,-2.5724,-2.5724,-2.5759,-2.576,-2.576,-2.5746,-2.5744,-2.5743,-2.5742,-2.5775,-2.5777,-2.578,-2.5819,0,0,-2.5787,-2.5788,0,0,0,0,0,0,0,0,-2.5683,-2.5687,-2.5724,-2.5724,-2.5724,-2.5747,-2.5746,-2.578,-2.5746,-2.5737,-2.5743,-2.5741,-2.5767,-2.577,-2.5779,-2.5821,-2.5822,-2.5787,-2.5789,-2.579,-2.5791,0,0,0,0,0,0,0,-2.5681,-2.5686,-2.574,-2.5725,-2.5725,-2.5721,-2.5725,-2.5752,-2.5759,-2.5738,-2.5737,-2.5741,-2.5767,-2.5777,-2.578,-2.5823,-2.5787,-2.579,-2.5791,-2.5792,-2.5899,-2.59,0,0,0,0,0,0,-2.5678,-2.5684,-2.5739,-2.5741,-2.57,-2.5724,-2.5727,-2.5741,-2.5758,-2.576,-2.5742,-2.574,-2.5773,-2.5777,-2.5781,-2.5828,-2.579,-2.5792,-2.5794,-2.5898,-2.5899,-2.5901,0,0,0,0,0,0,-2.5677,-2.5683,-2.5737,-2.5712,-2.5719,-2.5726,-2.5742,-2.5742,-2.5752,-2.5762,-2.5763,-2.5751,-2.5772,-2.5777,-2.581,-2.5829,-2.5793,-2.5796,-2.5896,-2.5898,-2.59,-2.5924,0,0,0,0,0,0,-2.5675,-2.5683,-2.5698,-2.5713,-2.572,-2.5766,-2.5743,-2.5744,-2.5756,-2.5754,-2.577,-2.5771,-2.5772,-2.5806,-2.5812,-2.5832,-2.5798,-2.5894,-2.5897,-2.5899,-2.5921,-2.5926,-2.593,0,0,0,0,0,-2.5672,-2.5703,-2.5699,-2.5705,-2.5739,-2.5767,-2.5771,-2.5771,-2.5758,-2.5773,-2.5779,-2.5771,-2.5826,-2.581,-2.5816,-2.5837,-2.5893,-2.5896,-2.5899,-2.5919,-2.5925,-2.593,0,0,0,0,0,0,-2.569,-2.5705,-2.57,-2.5737,-2.5751,-2.5764,-2.5783,-2.5778,-2.5796,-2.5793,-2.5792,-2.5796,-2.5829,-2.5837,-2.5818,-2.5877,-2.5858,-2.5862,-2.587,-2.5876,-2.5881,-2.5878,-2.58,0,0,0,0,0,-2.5699,-2.572,-2.5732,-2.5763,-2.577,-2.5776,-2.5788,-2.5787,-2.5801,-2.5807,-2.5815,-2.583,-2.585,-2.5864,-2.5884,-2.5922,-2.5926,-2.594,-2.5945,-2.5949,-2.5952,-2.5973,-2.598,-2.5911,-2.5911,-2.5911,0,0,-2.5716,-2.5727,-2.574,-2.5767,-2.5777,-2.58,-2.5781,-2.5805,-2.5821,-2.581,-2.5841,-2.5849,-2.5864,-2.59,-2.5917,-2.5907,-2.5972,-2.5952,-2.5955,-2.5957,-2.5977,-2.5984,-2.599,-2.5913,-2.5913,-2.5912,0,0,-2.5759,-2.5769,-2.5796,-2.5807,-2.5824,-2.5827,-2.5834,-2.5848,-2.5853,-2.5884,-2.5876,-2.5896,-2.5932,-2.5943,-2.5954,-2.6002,-2.5995,-2.6009,-2.6033,-2.6053,-2.6059,-2.6064,-2.608,-2.6087,-2.6012,-2.6012,-2.6012,0,-2.5778,-2.5811,-2.5811,-2.5836,-2.5848,-2.5839,-2.5867,-2.5878,-2.59,-2.5908,-2.5898,-2.5943,-2.5953,-2.5991,-2.6003,-2.6012,-2.6019,-2.6006,-2.6058,-2.6063,-2.6067,-2.6083,-2.609,-2.6014,-2.6014,-2.6014,-2.6013,0,-2.5834,-2.5857,-2.5877,-2.5898,-2.5913,-2.5939,-2.5943,-2.5958,-2.5956,-2.596,-2.5992,-2.6004,-2.6026,-2.6036,-2.6034,-2.6074,-2.6068,-2.6058,-2.6039,-2.6075,-2.609,-2.6097,-2.6016,-2.6016,-2.6015,-2.6015,0,0,-2.5888,-2.591,-2.5917,-2.5927,-2.5944,-2.5962,-2.5988,-2.601,-2.6022,-2.6038,-2.6059,-2.609,-2.6081,-2.6093,-2.6093,-2.6111,-2.6148,-2.6099,-2.6099,-2.6107,-2.6193,-2.62,-2.6207,-2.6144,-2.6145,-2.6146,-2.6192,0,-2.5932,-2.5977,-2.5978,-2.6019,-2.604,-2.6033,-2.6056,-2.6069,-2.6075,-2.6094,-2.61,-2.6121,-2.6108,-2.6115,-2.6133,-2.614,-2.6165,-2.6137,-2.6164,-2.6165,-2.6159,-2.6215,-2.6222,-2.6265,-2.6198,-2.6199,-2.6199,0,-2.5989,-2.6006,-2.6049,-2.6064,-2.6073,-2.6093,-2.6113,-2.6132,-2.6147,-2.615,-2.6164,-2.6161,-2.6187,-2.6168,-2.6205,-2.6186,-2.6197,-2.6202,-2.6204,-2.6206,-2.6184,-2.6218,-2.6278,-2.6284,-2.6209,-2.6208,-2.6207,0,-2.6023,-2.6058,-2.6088,-2.6097,-2.6115,-2.6129,-2.6138,-2.6152,-2.6165,-2.6182,-2.6191,-2.6211,-2.6223,-2.6239,-2.6242,-2.6227,-2.6279,-2.626,-2.6281,-2.6281,-2.6292,-2.6291,-2.6354,-2.63,-2.63,-2.63,-2.63,0,-2.6071,-2.6098,-2.6104,-2.6123,-2.6153,-2.6154,-2.6183,-2.6191,-2.6203,-2.6223,-2.6219,-2.6238,-2.6241,-2.6261,-2.6263,-2.6293,-2.6298,-2.6301,-2.6301,-2.6301,-2.6301,-2.6308,-2.6305,-2.6302,-2.6301,-2.6301,-2.6301,0,-2.6115,-2.612,-2.6152,-2.6167,-2.6172,-2.6193,-2.6206,-2.6224,-2.6229,-2.6254,-2.626,-2.6269,-2.6292,-2.6296,-2.6324,-2.6326,-2.6361,-2.6359,-2.6356,-2.6355,-2.6377,-2.6375,-2.6446,-2.6456,-2.6396,-2.6397,-2.6397,0,-2.6145,-2.6165,-2.6182,-2.6195,-2.6204,-2.6226,-2.6239,-2.6241,-2.6255,-2.6274,-2.629,-2.6313,-2.6331,-2.6368,-2.6377,-2.6398,-2.6396,-2.6419,-2.6399,-2.6398,-2.6395,-2.6394,-2.6396,-2.6423,-2.6424,-2.6424,-2.6425,0,-2.6198,-2.6199,-2.6218,-2.6239,-2.6255,-2.6271,-2.6286,-2.6297,-2.6301,-2.6317,-2.6341,-2.6355,-2.6383,-2.6406,-2.6427,-2.6436,-2.6431,-2.6431,-2.6437,-2.6437,-2.6434,-2.6435,-2.6366,-2.6429,-2.6429,-2.6428,-2.6428,-2.6428,-2.6235,-2.6253,-2.6268,-2.6289,-2.6301,-2.6316,-2.6333,-2.6341,-2.636,-2.6383,-2.6383,-2.6409,-2.6424,-2.6452,-2.6463,-2.6483,-2.6475,-2.6484,-2.6486,-2.6489,-2.649,-2.6432,-2.6487,-2.6487,-2.6487,-2.6486,-2.6486,0,-2.6288,-2.6297,-2.6317,-2.6338,-2.6355,-2.6349,-2.6366,-2.6381,-2.6403,-2.6418,-2.6436,-2.6463,-2.6485,-2.6496,-2.6517,-2.6532,-2.653,-2.6537,-2.6536,-2.6538,-2.6496,-2.6488,-2.6538,-2.6538,-2.6538,-2.6538,-2.6538,-2.6538,-2.6317,-2.6347,-2.635,-2.6386,-2.6395,-2.6419,-2.643,-2.6443,-2.6455,-2.6485,-2.6503,-2.651,-2.6523,-2.6546,-2.6566,-2.6568,-2.6576,-2.6585,-2.6586,-2.6546,-2.6541,-2.6536,-2.6529,-2.6587,-2.6587,-2.6627,-2.6627,-2.6627]},{"header":{"parameterUnit":"m.s-1","parameterCategory":1,"la1":30.2991,"la2":30.254,"lo1":-89.0895,"lo2":-89.0444,"dy":0.0017,"dx":0.0017,"nx":28,"ny":28,"refTime":"2025-04-18T03:00:00:Z","depth":0,"parameterNumber":3,"parameterNumberName":"V-component_of_WINDS"},"data":[0,0,0,0,0,0,0,0,0,0,0,0,0,0,0,0,0,0,0,0,0,0,0,0,0,0,0,0,0,0,0,0,0,0,0,0,0,0,0,0,0,0,0,0,0,0,0,0,0,0,0,0,0,0,0,0,0,0,4.0432,4.0432,0,4.0464,4.0464,4.0464,4.0441,4.044,4.0439,4.0438,4.0466,4.0468,4.047,0,0,0,0,0,0,0,0,0,0,0,0,0,4.0346,4.0348,4.0432,4.0432,4.0432,4.0463,4.0464,4.0464,4.0441,4.0439,4.0438,4.0437,4.0466,4.0468,4.047,0,0,0,0,0,0,0,0,0,0,0,0,0,4.0381,4.0349,4.0431,4.0424,4.0424,4.0463,4.0464,4.0464,4.0441,4.0439,4.0438,4.0436,4.0465,4.0468,4.047,4.0517,0,0,4.0478,4.0479,0,0,0,0,0,0,0,0,4.0379,4.0384,4.0425,4.0425,4.0425,4.0447,4.0444,4.0482,4.0441,4.0434,4.0438,4.0436,4.0461,4.0464,4.0473,4.0518,4.0519,4.0478,4.048,4.0481,4.0482,0,0,0,0,0,0,0,4.0377,4.0383,4.0444,4.0426,4.0425,4.0418,4.0422,4.0451,4.0456,4.0435,4.0433,4.0438,4.046,4.047,4.0473,4.052,4.0478,4.048,4.0482,4.0483,4.0606,4.0607,0,0,0,0,0,0,4.0376,4.0381,4.0443,4.0445,4.0398,4.0421,4.0425,4.0441,4.0455,4.0456,4.0439,4.0436,4.0467,4.047,4.0474,4.0531,4.0481,4.0483,4.0485,4.0604,4.0606,4.0608,0,0,0,0,0,0,4.0374,4.0381,4.0442,4.0413,4.042,4.0424,4.0443,4.0442,4.0453,4.0458,4.0459,4.0449,4.0466,4.0471,4.0507,4.0531,4.0484,4.0487,4.0602,4.0605,4.0607,4.0644,0,0,0,0,0,0,4.0372,4.0381,4.04,4.0413,4.0421,4.0475,4.0444,4.0444,4.0458,4.0455,4.0468,4.0468,4.0465,4.0503,4.0509,4.0534,4.0489,4.06,4.0603,4.0606,4.064,4.0647,4.0653,0,0,0,0,0,4.0369,4.0408,4.0401,4.0408,4.0445,4.0477,4.0481,4.0478,4.046,4.0478,4.0482,4.0468,4.0527,4.0507,4.0514,4.054,4.0598,4.0602,4.0606,4.0638,4.0646,4.0653,0,0,0,0,0,0,4.0395,4.0409,4.0402,4.0447,4.0461,4.0473,4.0496,4.0486,4.0505,4.0501,4.0494,4.0497,4.0536,4.0541,4.0518,4.0586,4.056,4.0565,4.0582,4.059,4.0596,4.0594,4.0491,0,0,0,0,0,4.0406,4.0432,4.0442,4.0481,4.0489,4.0491,4.0504,4.0501,4.0514,4.052,4.0526,4.0539,4.0561,4.0575,4.0595,4.0641,4.0643,4.0662,4.0668,4.0673,4.0678,4.0703,4.0712,4.062,4.062,4.062,0,0,4.0429,4.044,4.0457,4.0487,4.0497,4.0523,4.0496,4.0524,4.0543,4.0524,4.0559,4.0564,4.0578,4.0619,4.0638,4.0625,4.0704,4.0678,4.0682,4.0685,4.0708,4.0717,4.0725,4.0623,4.0623,4.0622,0,0,4.0485,4.0496,4.053,4.0541,4.0558,4.056,4.0568,4.0581,4.0585,4.062,4.0606,4.0628,4.0665,4.0676,4.0687,4.0747,4.0735,4.0753,4.0787,4.0812,4.0819,4.0826,4.0848,4.0856,4.0758,4.0758,4.0758,0,4.0512,4.0552,4.0548,4.0578,4.0592,4.0577,4.0611,4.0621,4.0643,4.0652,4.0638,4.0685,4.0693,4.0737,4.0752,4.0761,4.077,4.0753,4.0819,4.0825,4.0831,4.0852,4.0861,4.0761,4.076,4.076,4.076,0,4.0584,4.0612,4.0637,4.0661,4.0677,4.0708,4.0709,4.0725,4.072,4.0722,4.0759,4.0768,4.079,4.08,4.0794,4.0844,4.0835,4.082,4.0794,4.0842,4.0862,4.087,4.0764,4.0763,4.0762,4.0762,0,0,4.0658,4.068,4.0689,4.07,4.0718,4.0739,4.0769,4.0793,4.0808,4.0823,4.0848,4.0881,4.0867,4.0878,4.0873,4.0895,4.0944,4.0877,4.0877,4.089,4.1,4.1012,4.1022,4.0935,4.0937,4.0938,4.0999,0,4.0715,4.0771,4.0769,4.0821,4.0847,4.0832,4.0859,4.0872,4.0875,4.0897,4.0899,4.0923,4.0902,4.0909,4.093,4.0934,4.0966,4.0929,4.0959,4.096,4.0958,4.1032,4.1046,4.1103,4.1007,4.1008,4.1009,0,4.0791,4.0811,4.0866,4.0881,4.0891,4.0916,4.0938,4.0958,4.0972,4.0973,4.0987,4.0979,4.1009,4.0981,4.1023,4.0998,4.101,4.1013,4.1015,4.1019,4.0989,4.1039,4.1121,4.113,4.1021,4.102,4.1019,0,4.0841,4.0881,4.092,4.093,4.0947,4.0965,4.0973,4.0986,4.1,4.1019,4.1028,4.1049,4.106,4.1076,4.1073,4.1053,4.1116,4.1088,4.1117,4.1118,4.1132,4.1132,4.1218,4.1138,4.1138,4.1138,4.1137,0,4.0907,4.0941,4.0943,4.0967,4.1005,4.1001,4.1038,4.1044,4.1056,4.108,4.1067,4.109,4.1084,4.1106,4.1104,4.1139,4.1144,4.1145,4.1144,4.1147,4.1147,4.1156,4.1152,4.114,4.1139,4.1139,4.1139,0,4.097,4.0973,4.1014,4.1028,4.1032,4.106,4.1071,4.1093,4.1095,4.1125,4.1132,4.1135,4.116,4.1159,4.1187,4.1185,4.123,4.1223,4.1226,4.1225,4.1255,4.1253,4.1351,4.1364,4.1274,4.1275,4.1276,0,4.1013,4.1039,4.1056,4.1073,4.1082,4.1108,4.1123,4.112,4.1136,4.1155,4.1174,4.1199,4.1218,4.1259,4.1263,4.1285,4.128,4.1312,4.1283,4.1285,4.1282,4.1281,4.1284,4.1319,4.132,4.1321,4.1321,0,4.1088,4.1089,4.1112,4.1136,4.1155,4.1173,4.119,4.1203,4.1202,4.122,4.1247,4.1262,4.1292,4.1316,4.1337,4.1343,4.1332,4.1331,4.1339,4.1343,4.1343,4.1345,4.1243,4.1329,4.1328,4.1327,4.1327,4.1327,4.1143,4.1167,4.1183,4.121,4.1222,4.1238,4.126,4.1266,4.1288,4.1314,4.1309,4.1339,4.1353,4.138,4.1388,4.1411,4.1399,4.1411,4.1414,4.1417,4.1421,4.1339,4.1414,4.1414,4.1414,4.1414,4.1414,0,4.122,4.123,4.1254,4.1279,4.13,4.1289,4.1307,4.1324,4.1352,4.1366,4.1386,4.1416,4.144,4.1446,4.1469,4.1486,4.1481,4.1492,4.1491,4.1493,4.143,4.1421,4.1495,4.1495,4.1495,4.1495,4.1495,4.1495,4.1262,4.1302,4.1304,4.1349,4.1358,4.1389,4.14,4.1415,4.1426,4.1462,4.1482,4.1487,4.1497,4.1521,4.1542,4.1543,4.1552,4.1565,4.1564,4.1506,4.1497,4.149,4.1482,4.1567,4.1567,4.1626,4.1626,4.1627]}]]